Wind From: 11-12-2017 12:03 Until: 12-12-2017 06:00 warning for: Wind Level: Orange info button

Power and phone distribution networks may be disrupted for relatively long periods., Roofs and chimneys can be damaged. , Tree branches may break. , Vehicles can be deported. , Traffic may be disrupted, particularly on secondary roads in forest areas. Limit your trips. , Limit your speed in highway driving, especially if you drive a vehicle or hitch sensitive to wind. , Do not go for walks in forests or along the coast., In town, be vigilant against possible falling objects., Do not work on roofs and do not touch any electrical line fallen on the ground., Store or secure sensitive objects to wind or likely to be damaged., Always install power generators outside buildings. 


Meteo18 Weather Cam more information Meteo18 Weather Cam


Thunder radar more information blitzortung!


Rain radar more information rain snow radar


Visit our other weather sites:

Template documentation
and downloads

And another site



Weather Underground History page Text

Daily Summary for March 9, 2017 Units:  Metric    English   Both
« Previous Day
Next Day »
Daily Weekly Monthly Yearly Custom
  High: Low: Average:
Temperature: 13.9 °C 9.3 °C 11.4 °C
Dew Point: 9.9 °C 7.8 °C 9.2 °C
Humidity: 96 % 69 % 87 %
Wind Speed: 32.2 km/h 0.0 km/h 9.4 km/h
Wind Gust: 37.0 km/h - -
Wind:- - WSW
Pressure: 1027.7 hPa 1024.6 hPa -
Precipitation: 0.0 mm    
Historical Graphs
 
 
Tabular Data for March 9, 2017
Time Temperature Dew Point Pressure Wind Wind Speed Wind Gust Humidity Rainfall Rate (Hourly)
00:02 10.7 °C 9.9 °C 1024.9 hPa WNW 20.9 km/h 24.1 km/h 95 % 0.0 mm
00:07 10.6 °C 9.8 °C 1024.9 hPa West 16.1 km/h 25.7 km/h 95 % 0.0 mm
00:12 10.6 °C 9.8 °C 1024.9 hPa WNW 11.3 km/h 27.4 km/h 95 % 0.0 mm
00:17 10.6 °C 9.8 °C 1024.9 hPa WSW 9.7 km/h 27.4 km/h 95 % 0.0 mm
00:22 10.6 °C 9.8 °C 1024.9 hPa West 19.3 km/h 27.4 km/h 95 % 0.0 mm
00:27 10.6 °C 9.8 °C 1024.9 hPa West 17.7 km/h 24.1 km/h 95 % 0.0 mm
00:32 10.5 °C 9.7 °C 1024.6 hPa SW 12.9 km/h 24.1 km/h 95 % 0.0 mm
00:37 10.5 °C 9.7 °C 1024.9 hPa West 24.1 km/h 25.7 km/h 95 % 0.0 mm
00:42 10.6 °C 9.8 °C 1024.9 hPa West 9.7 km/h 32.2 km/h 95 % 0.0 mm
00:47 10.6 °C 9.8 °C 1024.9 hPa WSW 19.3 km/h 32.2 km/h 95 % 0.0 mm
00:52 10.5 °C 9.7 °C 1024.9 hPa West 14.5 km/h 32.2 km/h 95 % 0.0 mm
00:57 10.5 °C 9.7 °C 1024.9 hPa West 12.9 km/h 30.6 km/h 95 % 0.0 mm
01:02 10.5 °C 9.7 °C 1024.9 hPa West 12.9 km/h 25.7 km/h 95 % 0.0 mm
01:07 10.4 °C 9.8 °C 1024.9 hPa WNW 25.7 km/h 25.7 km/h 96 % 0.0 mm
01:12 10.5 °C 9.9 °C 1024.9 hPa WSW 25.7 km/h 33.8 km/h 96 % 0.0 mm
01:17 10.5 °C 9.7 °C 1024.9 hPa WSW 19.3 km/h 35.4 km/h 95 % 0.0 mm
01:22 10.5 °C 9.7 °C 1024.9 hPa WSW 19.3 km/h 35.4 km/h 95 % 0.0 mm
01:27 10.5 °C 9.7 °C 1024.9 hPa West 14.5 km/h 35.4 km/h 95 % 0.0 mm
01:32 10.5 °C 9.7 °C 1024.9 hPa WSW 16.1 km/h 30.6 km/h 95 % 0.0 mm
01:37 10.4 °C 9.6 °C 1025.3 hPa WSW 19.3 km/h 27.4 km/h 95 % 0.0 mm
01:42 10.5 °C 9.7 °C 1025.3 hPa WSW 27.4 km/h 29.0 km/h 95 % 0.0 mm
01:52 10.5 °C 9.7 °C 1025.3 hPa SW 16.1 km/h 33.8 km/h 95 % 0.0 mm
01:57 10.5 °C 9.7 °C 1024.9 hPa WSW 14.5 km/h 33.8 km/h 95 % 0.0 mm
02:02 10.4 °C 9.6 °C 1024.9 hPa West 22.5 km/h 30.6 km/h 95 % 0.0 mm
02:07 10.5 °C 9.7 °C 1024.9 hPa WSW 14.5 km/h 30.6 km/h 95 % 0.0 mm
02:12 10.4 °C 9.6 °C 1024.9 hPa WNW 16.1 km/h 29.0 km/h 95 % 0.0 mm
02:17 10.4 °C 9.6 °C 1024.9 hPa SSW 14.5 km/h 29.0 km/h 95 % 0.0 mm
02:22 10.4 °C 9.6 °C 1024.9 hPa WSW 9.7 km/h 27.4 km/h 95 % 0.0 mm
02:27 10.4 °C 9.6 °C 1024.9 hPa West 25.7 km/h 27.4 km/h 95 % 0.0 mm
02:32 10.4 °C 9.6 °C 1024.9 hPa West 9.7 km/h 29.0 km/h 95 % 0.0 mm
02:42 10.3 °C 9.5 °C 1024.9 hPa West 19.3 km/h 29.0 km/h 95 % 0.0 mm
02:47 10.3 °C 9.5 °C 1024.9 hPa West 16.1 km/h 29.0 km/h 95 % 0.0 mm
02:52 10.3 °C 9.7 °C 1024.9 hPa West 14.5 km/h 29.0 km/h 96 % 0.0 mm
02:57 10.3 °C 9.7 °C 1024.9 hPa West 11.3 km/h 29.0 km/h 96 % 0.0 mm
03:02 10.3 °C 9.7 °C 1024.9 hPa WSW 9.7 km/h 27.4 km/h 96 % 0.0 mm
03:07 10.2 °C 9.6 °C 1024.9 hPa WSW 16.1 km/h 27.4 km/h 96 % 0.0 mm
03:12 10.2 °C 9.6 °C 1024.9 hPa WSW 8.0 km/h 25.7 km/h 96 % 0.0 mm
03:17 10.2 °C 9.6 °C 1025.3 hPa SW 11.3 km/h 29.0 km/h 96 % 0.0 mm
03:22 10.2 °C 9.6 °C 1025.3 hPa West 9.7 km/h 29.0 km/h 96 % 0.0 mm
03:27 10.2 °C 9.6 °C 1025.3 hPa WSW 4.8 km/h 29.0 km/h 96 % 0.0 mm
03:32 10.2 °C 9.6 °C 1025.3 hPa West 11.3 km/h 19.3 km/h 96 % 0.0 mm
03:42 10.2 °C 9.6 °C 1025.3 hPa WSW 12.9 km/h 19.3 km/h 96 % 0.0 mm
03:47 10.2 °C 9.6 °C 1025.3 hPa WSW 16.1 km/h 19.3 km/h 96 % 0.0 mm
03:52 10.2 °C 9.6 °C 1025.3 hPa West 14.5 km/h 17.7 km/h 96 % 0.0 mm
03:57 10.2 °C 9.6 °C 1025.3 hPa West 9.7 km/h 19.3 km/h 96 % 0.0 mm
04:02 10.2 °C 9.6 °C 1025.3 hPa WSW 8.0 km/h 25.7 km/h 96 % 0.0 mm
04:07 10.2 °C 9.6 °C 1024.9 hPa West 14.5 km/h 25.7 km/h 96 % 0.0 mm
04:12 10.1 °C 9.5 °C 1025.3 hPa WSW 12.9 km/h 29.0 km/h 96 % 0.0 mm
04:17 10.1 °C 9.5 °C 1025.3 hPa WSW 11.3 km/h 29.0 km/h 96 % 0.0 mm
04:22 10.1 °C 9.5 °C 1025.3 hPa West 6.4 km/h 17.7 km/h 96 % 0.0 mm
04:27 10.1 °C 9.5 °C 1025.3 hPa WSW 16.1 km/h 17.7 km/h 96 % 0.0 mm
04:32 10.1 °C 9.5 °C 1025.3 hPa Calm   22.5 km/h 96 % 0.0 mm
04:37 10.1 °C 9.5 °C 1025.3 hPa West 3.2 km/h 24.1 km/h 96 % 0.0 mm
04:42 10.1 °C 9.5 °C 1025.3 hPa WSW 1.6 km/h 24.1 km/h 96 % 0.0 mm
04:47 10.0 °C 9.4 °C 1025.3 hPa West 8.0 km/h 24.1 km/h 96 % 0.0 mm
04:52 10.0 °C 9.4 °C 1025.3 hPa West 8.0 km/h 24.1 km/h 96 % 0.0 mm
04:57 9.9 °C 9.3 °C 1025.3 hPa SW 4.8 km/h 20.9 km/h 96 % 0.0 mm
05:02 9.9 °C 9.3 °C 1025.3 hPa SW 4.8 km/h 20.9 km/h 96 % 0.0 mm
05:07 9.9 °C 9.3 °C 1025.6 hPa WSW 9.7 km/h 20.9 km/h 96 % 0.0 mm
05:12 9.9 °C 9.3 °C 1025.3 hPa SW 16.1 km/h 20.9 km/h 96 % 0.0 mm
05:17 9.8 °C 9.2 °C 1025.3 hPa SSW 6.4 km/h 19.3 km/h 96 % 0.0 mm
05:22 9.8 °C 9.2 °C 1025.3 hPa WSW 4.8 km/h 19.3 km/h 96 % 0.0 mm
05:27 9.8 °C 9.2 °C 1025.3 hPa WNW 17.7 km/h 19.3 km/h 96 % 0.0 mm
05:32 9.8 °C 9.2 °C 1025.3 hPa SW 8.0 km/h 19.3 km/h 96 % 0.0 mm
05:37 9.7 °C 9.1 °C 1025.3 hPa SW 12.9 km/h 20.9 km/h 96 % 0.0 mm
05:42 9.7 °C 9.1 °C 1025.3 hPa West 6.4 km/h 20.9 km/h 96 % 0.0 mm
05:47 9.7 °C 9.1 °C 1025.6 hPa WSW 12.9 km/h 20.9 km/h 96 % 0.0 mm
05:52 9.7 °C 9.1 °C 1025.6 hPa West 8.0 km/h 20.9 km/h 96 % 0.0 mm
05:57 9.7 °C 9.1 °C 1025.3 hPa WSW 12.9 km/h 25.7 km/h 96 % 0.0 mm
06:02 9.7 °C 8.9 °C 1025.6 hPa WSW 17.7 km/h 25.7 km/h 95 % 0.0 mm
06:07 9.7 °C 8.9 °C 1025.6 hPa WSW 14.5 km/h 19.3 km/h 95 % 0.0 mm
06:12 9.8 °C 8.9 °C 1025.6 hPa SW 14.5 km/h 19.3 km/h 94 % 0.0 mm
06:17 9.7 °C 8.8 °C 1025.6 hPa SW 14.5 km/h 22.5 km/h 94 % 0.0 mm
06:22 9.8 °C 8.9 °C 1025.6 hPa SW 9.7 km/h 22.5 km/h 94 % 0.0 mm
06:32 9.7 °C 8.8 °C 1026.0 hPa WSW 16.1 km/h 24.1 km/h 94 % 0.0 mm
06:42 9.7 °C 8.8 °C 1026.0 hPa SW 9.7 km/h 24.1 km/h 94 % 0.0 mm
06:52 9.7 °C 8.8 °C 1026.0 hPa SW 4.8 km/h 19.3 km/h 94 % 0.0 mm
07:02 9.6 °C 8.7 °C 1026.0 hPa SW 6.4 km/h 16.1 km/h 94 % 0.0 mm
07:07 9.6 °C 8.7 °C 1026.0 hPa SSW 3.2 km/h 19.3 km/h 94 % 0.0 mm
07:12 9.6 °C 8.7 °C 1026.0 hPa SSW 11.3 km/h 19.3 km/h 94 % 0.0 mm
07:17 9.6 °C 8.5 °C 1026.0 hPa WSW 8.0 km/h 24.1 km/h 93 % 0.0 mm
07:22 9.6 °C 8.5 °C 1025.6 hPa SW 9.7 km/h 24.1 km/h 93 % 0.0 mm
07:32 9.6 °C 8.5 °C 1025.6 hPa SW 8.0 km/h 24.1 km/h 93 % 0.0 mm
07:37 9.5 °C 8.4 °C 1025.6 hPa SSW 8.0 km/h 17.7 km/h 93 % 0.0 mm
07:42 9.5 °C 8.4 °C 1025.6 hPa SW 16.1 km/h 17.7 km/h 93 % 0.0 mm
07:47 9.5 °C 8.4 °C 1025.6 hPa SSW 12.9 km/h 19.3 km/h 93 % 0.0 mm
07:57 9.4 °C 8.3 °C 1025.6 hPa SW 12.9 km/h 19.3 km/h 93 % 0.0 mm
08:02 9.4 °C 8.3 °C 1025.6 hPa SW 14.5 km/h 19.3 km/h 93 % 0.0 mm
08:07 9.4 °C 8.3 °C 1025.6 hPa SW 9.7 km/h 19.3 km/h 93 % 0.0 mm
08:12 9.4 °C 8.3 °C 1025.6 hPa SW 9.7 km/h 19.3 km/h 93 % 0.0 mm
08:17 9.4 °C 8.3 °C 1025.6 hPa SW 14.5 km/h 19.3 km/h 93 % 0.0 mm
08:22 9.4 °C 8.3 °C 1026.0 hPa SSW 9.7 km/h 19.3 km/h 93 % 0.0 mm
08:27 9.4 °C 8.3 °C 1026.0 hPa SW 11.3 km/h 19.3 km/h 93 % 0.0 mm
08:32 9.4 °C 8.3 °C 1026.0 hPa SW 11.3 km/h 19.3 km/h 93 % 0.0 mm
08:37 9.4 °C 8.3 °C 1026.0 hPa SSW 8.0 km/h 19.3 km/h 93 % 0.0 mm
08:42 9.4 °C 8.3 °C 1026.0 hPa West 4.8 km/h 19.3 km/h 93 % 0.0 mm
08:47 9.3 °C 8.4 °C 1026.3 hPa SW 3.2 km/h 17.7 km/h 94 % 0.0 mm
08:52 9.3 °C 8.4 °C 1026.3 hPa SW 6.4 km/h 17.7 km/h 94 % 0.0 mm
08:57 9.3 °C 8.4 °C 1026.3 hPa SW 3.2 km/h 12.9 km/h 94 % 0.0 mm
09:02 9.3 °C 8.4 °C 1026.3 hPa SSW 6.4 km/h 12.9 km/h 94 % 0.0 mm
09:12 9.3 °C 8.5 °C 1026.3 hPa SW 6.4 km/h 14.5 km/h 95 % 0.0 mm
09:17 9.3 °C 8.5 °C 1026.6 hPa WSW 3.2 km/h 14.5 km/h 95 % 0.0 mm
09:22 9.3 °C 8.4 °C 1026.6 hPa SW 11.3 km/h 14.5 km/h 94 % 0.0 mm
09:27 9.4 °C 8.5 °C 1026.3 hPa SSW 9.7 km/h 14.5 km/h 94 % 0.0 mm
09:32 9.4 °C 8.5 °C 1026.6 hPa SW 8.0 km/h 14.5 km/h 94 % 0.0 mm
09:37 9.4 °C 8.5 °C 1026.3 hPa SW 8.0 km/h 14.5 km/h 94 % 0.0 mm
09:42 9.4 °C 8.5 °C 1026.6 hPa SW 6.4 km/h 14.5 km/h 94 % 0.0 mm
09:47 9.5 °C 8.6 °C 1026.6 hPa West 11.3 km/h 16.1 km/h 94 % 0.0 mm
09:52 9.5 °C 8.6 °C 1026.6 hPa West 8.0 km/h 16.1 km/h 94 % 0.0 mm
09:57 9.5 °C 8.4 °C 1026.6 hPa WSW 14.5 km/h 20.9 km/h 93 % 0.0 mm
10:02 9.6 °C 8.5 °C 1026.6 hPa West 3.2 km/h 20.9 km/h 93 % 0.0 mm
10:12 9.7 °C 8.6 °C 1026.6 hPa WSW 8.0 km/h 17.7 km/h 93 % 0.0 mm
10:17 9.7 °C 8.6 °C 1026.6 hPa SW 3.2 km/h 16.1 km/h 93 % 0.0 mm
10:27 9.9 °C 8.7 °C 1026.6 hPa WSW 9.7 km/h 17.7 km/h 92 % 0.0 mm
10:32 10.1 °C 8.9 °C 1026.6 hPa WNW 11.3 km/h 17.7 km/h 92 % 0.0 mm
10:37 10.2 °C 9.0 °C 1026.6 hPa WSW 8.0 km/h 19.3 km/h 92 % 0.0 mm
10:42 10.2 °C 8.8 °C 1026.6 hPa WSW 20.9 km/h 20.9 km/h 91 % 0.0 mm
10:47 10.3 °C 9.1 °C 1026.3 hPa WSW 12.9 km/h 29.0 km/h 92 % 0.0 mm
10:52 10.4 °C 9.0 °C 1026.3 hPa SSW 6.4 km/h 29.0 km/h 91 % 0.0 mm
10:57 10.5 °C 8.9 °C 1026.3 hPa WSW 12.9 km/h 29.0 km/h 90 % 0.0 mm
11:02 10.6 °C 9.0 °C 1026.3 hPa WSW 14.5 km/h 24.1 km/h 90 % 0.0 mm
11:12 10.8 °C 9.2 °C 1026.3 hPa WSW 16.1 km/h 24.1 km/h 90 % 0.0 mm
11:17 10.9 °C 9.2 °C 1026.3 hPa SW 11.3 km/h 24.1 km/h 89 % 0.0 mm
11:22 10.9 °C 9.0 °C 1026.3 hPa SW 11.3 km/h 25.7 km/h 88 % 0.0 mm
11:27 11.2 °C 9.3 °C 1026.3 hPa SW 9.7 km/h 29.0 km/h 88 % 0.0 mm
11:32 11.3 °C 9.2 °C 1026.3 hPa WSW 14.5 km/h 29.0 km/h 87 % 0.0 mm
11:37 11.6 °C 9.5 °C 1026.3 hPa SW 6.4 km/h 29.0 km/h 87 % 0.0 mm
11:42 11.6 °C 9.3 °C 1026.3 hPa West 20.9 km/h 22.5 km/h 86 % 0.0 mm
11:47 11.6 °C 9.0 °C 1026.3 hPa WSW 17.7 km/h 29.0 km/h 84 % 0.0 mm
11:52 11.7 °C 9.1 °C 1026.3 hPa NW 9.7 km/h 29.0 km/h 84 % 0.0 mm
11:57 11.8 °C 9.0 °C 1026.3 hPa West 24.1 km/h 30.6 km/h 83 % 0.0 mm
12:02 11.8 °C 8.8 °C 1026.3 hPa West 20.9 km/h 35.4 km/h 82 % 0.0 mm
12:07 12.0 °C 9.0 °C 1026.3 hPa WSW 19.3 km/h 35.4 km/h 82 % 0.0 mm
12:12 12.1 °C 8.9 °C 1026.3 hPa West 17.7 km/h 33.8 km/h 81 % 0.0 mm
12:17 12.2 °C 9.4 °C 1026.3 hPa WSW 12.9 km/h 35.4 km/h 83 % 0.0 mm
12:22 12.4 °C 9.2 °C 1026.3 hPa West 24.1 km/h 35.4 km/h 81 % 0.0 mm
12:27 12.4 °C 9.2 °C 1026.3 hPa SW 16.1 km/h 37.0 km/h 81 % 0.0 mm
12:32 12.4 °C 9.0 °C 1026.6 hPa SW 17.7 km/h 37.0 km/h 80 % 0.0 mm
12:37 12.7 °C 9.5 °C 1026.3 hPa West 27.4 km/h 37.0 km/h 81 % 0.0 mm
12:42 12.6 °C 9.1 °C 1026.6 hPa WSW 32.2 km/h 35.4 km/h 79 % 0.0 mm
12:47 12.6 °C 9.2 °C 1026.6 hPa West 22.5 km/h 37.0 km/h 80 % 0.0 mm
12:52 12.6 °C 9.4 °C 1026.6 hPa West 12.9 km/h 37.0 km/h 81 % 0.0 mm
12:57 12.5 °C 9.1 °C 1026.6 hPa West 22.5 km/h 37.0 km/h 80 % 0.0 mm
13:02 12.5 °C 9.1 °C 1026.6 hPa West 6.4 km/h 32.2 km/h 80 % 0.0 mm
13:12 12.7 °C 9.0 °C 1026.6 hPa West 9.7 km/h 27.4 km/h 78 % 0.0 mm
13:17 12.8 °C 9.1 °C 1026.6 hPa SSW 12.9 km/h 24.1 km/h 78 % 0.0 mm
13:22 12.7 °C 8.6 °C 1026.6 hPa WSW 16.1 km/h 22.5 km/h 76 % 0.0 mm
13:27 12.8 °C 9.1 °C 1026.6 hPa SW 12.9 km/h 25.7 km/h 78 % 0.0 mm
13:32 12.9 °C 8.8 °C 1026.6 hPa West 8.0 km/h 25.7 km/h 76 % 0.0 mm
13:37 13.0 °C 9.1 °C 1026.6 hPa WSW 8.0 km/h 25.7 km/h 77 % 0.0 mm
13:42 13.2 °C 9.1 °C 1026.6 hPa West 8.0 km/h 24.1 km/h 76 % 0.0 mm
13:47 13.2 °C 8.9 °C 1026.6 hPa WSW 12.9 km/h 24.1 km/h 75 % 0.0 mm
13:52 13.2 °C 9.1 °C 1026.6 hPa West 20.9 km/h 27.4 km/h 76 % 0.0 mm
13:57 13.1 °C 8.6 °C 1026.3 hPa West 14.5 km/h 27.4 km/h 74 % 0.0 mm
14:02 13.2 °C 8.9 °C 1026.3 hPa SW 8.0 km/h 22.5 km/h 75 % 0.0 mm
14:12 13.4 °C 8.7 °C 1026.3 hPa WSW 17.7 km/h 22.5 km/h 73 % 0.0 mm
14:17 13.4 °C 8.9 °C 1026.3 hPa WSW 16.1 km/h 25.7 km/h 74 % 0.0 mm
14:22 13.6 °C 9.1 °C 1026.3 hPa WSW 9.7 km/h 25.7 km/h 74 % 0.0 mm
14:27 13.5 °C 8.6 °C 1026.0 hPa West 14.5 km/h 25.7 km/h 72 % 0.0 mm
14:32 13.6 °C 8.6 °C 1026.3 hPa West 11.3 km/h 25.7 km/h 72 % 0.0 mm
14:37 13.7 °C 8.9 °C 1026.0 hPa SW 11.3 km/h 25.7 km/h 73 % 0.0 mm
14:42 13.6 °C 8.4 °C 1026.3 hPa West 16.1 km/h 24.1 km/h 71 % 0.0 mm
14:47 13.4 °C 7.8 °C 1026.0 hPa WSW 11.3 km/h 24.1 km/h 69 % 0.0 mm
14:52 13.3 °C 7.9 °C 1026.0 hPa West 14.5 km/h 27.4 km/h 70 % 0.0 mm
14:57 13.4 °C 8.0 °C 1026.0 hPa West 11.3 km/h 27.4 km/h 70 % 0.0 mm
15:02 13.5 °C 8.6 °C 1026.0 hPa SW 11.3 km/h 27.4 km/h 72 % 0.0 mm
15:12 13.6 °C 8.2 °C 1026.0 hPa SSW 16.1 km/h 20.9 km/h 70 % 0.0 mm
15:17 13.6 °C 8.4 °C 1026.0 hPa SW 8.0 km/h 20.9 km/h 71 % 0.0 mm
15:22 13.7 °C 8.3 °C 1026.0 hPa West 9.7 km/h 19.3 km/h 70 % 0.0 mm
15:32 13.8 °C 8.6 °C 1026.0 hPa WSW 8.0 km/h 19.3 km/h 71 % 0.0 mm
15:37 13.8 °C 8.2 °C 1026.0 hPa WSW 8.0 km/h 20.9 km/h 69 % 0.0 mm
15:42 13.8 °C 8.2 °C 1026.0 hPa SW 11.3 km/h 22.5 km/h 69 % 0.0 mm
15:47 13.9 °C 8.5 °C 1026.0 hPa West 14.5 km/h 22.5 km/h 70 % 0.0 mm
15:52 13.9 °C 8.5 °C 1026.0 hPa SW 9.7 km/h 22.5 km/h 70 % 0.0 mm
15:57 13.8 °C 8.4 °C 1026.0 hPa West 9.7 km/h 20.9 km/h 70 % 0.0 mm
16:02 13.7 °C 8.5 °C 1026.0 hPa WSW 14.5 km/h 20.9 km/h 71 % 0.0 mm
16:12 13.9 °C 8.5 °C 1026.0 hPa SSW 11.3 km/h 22.5 km/h 70 % 0.0 mm
16:17 13.8 °C 8.8 °C 1026.0 hPa WNW 9.7 km/h 24.1 km/h 72 % 0.0 mm
16:22 13.9 °C 8.9 °C 1026.0 hPa WNW 17.7 km/h 25.7 km/h 72 % 0.0 mm
16:32 13.8 °C 8.8 °C 1026.0 hPa SW 9.7 km/h 20.9 km/h 72 % 0.0 mm
16:37 13.8 °C 8.8 °C 1026.0 hPa WSW 6.4 km/h 19.3 km/h 72 % 0.0 mm
16:42 13.8 °C 8.8 °C 1026.0 hPa SW 8.0 km/h 19.3 km/h 72 % 0.0 mm
16:52 13.6 °C 8.9 °C 1026.0 hPa West 12.9 km/h 19.3 km/h 73 % 0.0 mm
16:57 13.6 °C 9.1 °C 1026.0 hPa West 8.0 km/h 19.3 km/h 74 % 0.0 mm
17:02 13.6 °C 8.9 °C 1026.0 hPa WSW 9.7 km/h 19.3 km/h 73 % 0.0 mm
17:12 13.6 °C 9.1 °C 1026.0 hPa West 6.4 km/h 16.1 km/h 74 % 0.0 mm
17:17 13.5 °C 9.0 °C 1026.0 hPa WSW 8.0 km/h 14.5 km/h 74 % 0.0 mm
17:22 13.5 °C 9.2 °C 1026.0 hPa WNW 1.6 km/h 16.1 km/h 75 % 0.0 mm
17:27 13.4 °C 8.9 °C 1026.0 hPa WNW 4.8 km/h 16.1 km/h 74 % 0.0 mm
17:32 13.4 °C 9.1 °C 1026.0 hPa WSW 6.4 km/h 16.1 km/h 75 % 0.0 mm
17:42 13.4 °C 9.1 °C 1026.3 hPa WNW 3.2 km/h 9.7 km/h 75 % 0.0 mm
17:47 13.4 °C 8.9 °C 1026.3 hPa WSW 3.2 km/h 11.3 km/h 74 % 0.0 mm
17:52 13.4 °C 8.9 °C 1026.3 hPa WNW 3.2 km/h 11.3 km/h 74 % 0.0 mm
17:57 13.4 °C 9.1 °C 1026.3 hPa West 6.4 km/h 12.9 km/h 75 % 0.0 mm
18:02 13.4 °C 9.1 °C 1026.3 hPa WNW 4.8 km/h 12.9 km/h 75 % 0.0 mm
18:07 13.3 °C 9.0 °C 1026.3 hPa West 1.6 km/h 12.9 km/h 75 % 0.0 mm
18:12 13.3 °C 9.2 °C 1026.3 hPa WNW 3.2 km/h 12.9 km/h 76 % 0.0 mm
18:17 13.3 °C 9.2 °C 1026.3 hPa Calm   6.4 km/h 76 % 0.0 mm
18:27 13.2 °C 9.1 °C 1026.3 hPa Calm   4.8 km/h 76 % 0.0 mm
18:32 13.2 °C 9.3 °C 1026.3 hPa Calm   4.8 km/h 77 % 0.0 mm
18:37 13.1 °C 9.2 °C 1026.6 hPa Calm   4.8 km/h 77 % 0.0 mm
18:42 13.0 °C 9.1 °C 1026.6 hPa Calm   4.8 km/h 77 % 0.0 mm
18:47 12.9 °C 9.2 °C 1026.6 hPa West 1.6 km/h 3.2 km/h 78 % 0.0 mm
18:52 12.9 °C 9.3 °C 1026.6 hPa West 1.6 km/h 3.2 km/h 79 % 0.0 mm
18:57 12.9 °C 9.3 °C 1026.6 hPa West 1.6 km/h 3.2 km/h 79 % 0.0 mm
19:02 12.8 °C 9.2 °C 1026.6 hPa WSW 3.2 km/h 3.2 km/h 79 % 0.0 mm
19:12 12.9 °C 9.3 °C 1026.6 hPa WNW 3.2 km/h 6.4 km/h 79 % 0.0 mm
19:17 12.8 °C 9.2 °C 1026.6 hPa West 3.2 km/h 6.4 km/h 79 % 0.0 mm
19:22 12.8 °C 9.2 °C 1026.6 hPa West 4.8 km/h 6.4 km/h 79 % 0.0 mm
19:27 12.8 °C 9.2 °C 1027.0 hPa WNW 3.2 km/h 8.0 km/h 79 % 0.0 mm
19:32 12.8 °C 9.4 °C 1027.0 hPa WNW 3.2 km/h 8.0 km/h 80 % 0.0 mm
19:37 12.8 °C 9.4 °C 1027.0 hPa WNW 1.6 km/h 6.4 km/h 80 % 0.0 mm
19:42 12.7 °C 9.3 °C 1027.3 hPa Calm   4.8 km/h 80 % 0.0 mm
19:52 12.7 °C 9.3 °C 1027.3 hPa Calm   3.2 km/h 80 % 0.0 mm
19:57 12.7 °C 9.5 °C 1027.3 hPa WNW 3.2 km/h 8.0 km/h 81 % 0.0 mm
20:02 12.6 °C 9.4 °C 1027.3 hPa WNW 6.4 km/h 9.7 km/h 81 % 0.0 mm
20:07 12.6 °C 9.4 °C 1027.3 hPa WNW 8.0 km/h 9.7 km/h 81 % 0.0 mm
20:12 12.6 °C 9.6 °C 1027.7 hPa West 3.2 km/h 9.7 km/h 82 % 0.0 mm
20:17 12.5 °C 9.5 °C 1027.7 hPa WNW 3.2 km/h 9.7 km/h 82 % 0.0 mm
20:22 12.4 °C 9.6 °C 1027.7 hPa WNW 3.2 km/h 9.7 km/h 83 % 0.0 mm
20:27 12.4 °C 9.6 °C 1027.7 hPa WNW 4.8 km/h 6.4 km/h 83 % 0.0 mm
20:32 12.3 °C 9.7 °C 1027.7 hPa WNW 3.2 km/h 6.4 km/h 84 % 0.0 mm
20:37 12.3 °C 9.7 °C 1027.7 hPa NW 3.2 km/h 8.0 km/h 84 % 0.0 mm
20:42 12.3 °C 9.7 °C 1027.7 hPa West 3.2 km/h 8.0 km/h 84 % 0.0 mm
20:47 12.2 °C 9.8 °C 1027.7 hPa West 3.2 km/h 8.0 km/h 85 % 0.0 mm
20:52 12.2 °C 9.8 °C 1027.7 hPa West 1.6 km/h 8.0 km/h 85 % 0.0 mm
20:57 12.2 °C 9.8 °C 1027.7 hPa Calm   6.4 km/h 85 % 0.0 mm
21:02 12.2 °C 9.8 °C 1027.7 hPa Calm   6.4 km/h 85 % 0.0 mm
21:12 12.1 °C 9.7 °C 1027.7 hPa Calm   3.2 km/h 85 % 0.0 mm
21:17 12.1 °C 9.8 °C 1027.7 hPa Calm   3.2 km/h 86 % 0.0 mm
21:22 12.1 °C 9.8 °C 1027.7 hPa Calm   1.6 km/h 86 % 0.0 mm
21:27 12.1 °C 9.8 °C 1027.7 hPa Calm     86 % 0.0 mm
21:32 12.0 °C 9.7 °C 1027.7 hPa Calm     86 % 0.0 mm
21:37 12.0 °C 9.7 °C 1027.7 hPa Calm     86 % 0.0 mm
21:42 12.0 °C 9.7 °C 1027.3 hPa Calm     86 % 0.0 mm
21:47 11.9 °C 9.6 °C 1027.3 hPa Calm     86 % 0.0 mm
21:52 11.9 °C 9.6 °C 1027.7 hPa Calm     86 % 0.0 mm
21:57 11.9 °C 9.8 °C 1027.7 hPa Calm     87 % 0.0 mm
22:02 11.9 °C 9.8 °C 1027.7 hPa Calm     87 % 0.0 mm
22:12 11.9 °C 9.8 °C 1027.7 hPa WSW 3.2 km/h 3.2 km/h 87 % 0.0 mm
22:17 11.9 °C 9.8 °C 1027.7 hPa WNW 1.6 km/h 4.8 km/h 87 % 0.0 mm
22:22 11.9 °C 9.8 °C 1027.7 hPa Calm   4.8 km/h 87 % 0.0 mm
22:27 11.9 °C 9.8 °C 1027.3 hPa West 1.6 km/h 4.8 km/h 87 % 0.0 mm
22:32 11.9 °C 9.8 °C 1027.3 hPa WSW 3.2 km/h 3.2 km/h 87 % 0.0 mm
22:42 11.8 °C 9.9 °C 1027.3 hPa Calm   3.2 km/h 88 % 0.0 mm
22:47 11.8 °C 9.9 °C 1027.3 hPa Calm   3.2 km/h 88 % 0.0 mm
22:52 11.8 °C 9.9 °C 1027.3 hPa Calm   1.6 km/h 88 % 0.0 mm
22:57 11.7 °C 9.8 °C 1027.3 hPa WSW 1.6 km/h 1.6 km/h 88 % 0.0 mm
23:02 11.7 °C 9.8 °C 1027.3 hPa Calm   4.8 km/h 88 % 0.0 mm
23:12 11.7 °C 9.8 °C 1027.3 hPa Calm   4.8 km/h 88 % 0.0 mm
23:17 11.7 °C 9.9 °C 1027.3 hPa Calm   3.2 km/h 89 % 0.0 mm
23:22 11.7 °C 9.8 °C 1027.3 hPa Calm   3.2 km/h 88 % 0.0 mm
23:27 11.6 °C 9.8 °C 1027.3 hPa Calm   1.6 km/h 89 % 0.0 mm
23:32 11.6 °C 9.8 °C 1027.3 hPa Calm   1.6 km/h 89 % 0.0 mm
23:37 11.5 °C 9.7 °C 1027.3 hPa Calm   1.6 km/h 89 % 0.0 mm
23:42 11.4 °C 9.7 °C 1027.3 hPa Calm   1.6 km/h 89 % 0.0 mm
23:47 11.4 °C 9.7 °C 1027.3 hPa Calm   1.6 km/h 89 % 0.0 mm
23:52 11.4 °C 9.7 °C 1027.3 hPa Calm     89 % 0.0 mm
23:57 11.3 °C 9.7 °C 1027.3 hPa Calm     90 % 0.0 mm
Meteo18
Compliments of Weather Underground - 4 mb

Script developed by  Jim McMurry - jmcmurry@mwt.net Adapted for the template by  Wim van der Kuil - Leuven-Template.eu

You find our weather info also at:

European Weather Network

Weather Underground

Equipment we use:

Weather-station
Davis Vue

Weather-program
Meteohub

Weather-server
Raspberry PI 2 B+

Provider
1 and 1

Davis Vue

Meteohub

Raspberry PI 2 B+

1 and 1